Regional Weather Roundup
Issued by NWS

Home | Current Version | Previous Version | Graphics & Text | Print | Product List | Glossary On
Versions: 1 2 3 4 5 6 7 8 9 10 11 12 13 14 15 16 17 18 19 20 21 22 23 24 25 26 27
000
ASUS45 KBOU 310207
RWRCO

WEATHER ROUNDUP FOR COLORADO
NATIONAL WEATHER SERVICE DENVER/BOULDER CO
800 PM MDT TUE AUG 30 2016

NOTE: "FAIR" INDICATES FEW OR NO CLOUDS BELOW 12000 FEET WITH NO
SIGNIFICANT WEATHER AND/OR OBSTRUCTIONS TO VISIBILITY.

COZ001>005-013-030-031-310300-
...NORTHWEST COLORADO...

CITY           SKY/WX    TMP DP  RH WIND       PRES   REMARKS
CRAIG          FAIR      73  38  27 SE7       30.21R
HAYDEN         FAIR      70  37  30 SE13      30.26R
MEEKER         MOCLDY    75  36  24 NW5       30.22R
MOUNT WERNER   NOT AVBL
STEAMBOAT SPGS FAIR      68  40  36 CALM      30.29R
WALDEN         FAIR      59  36  41 E9        30.43R
$$

COZ006>008-011-310300-
...WEST CENTRAL VALLEYS...

CITY           SKY/WX    TMP DP  RH WIND       PRES   REMARKS
GRAND JUNCTION FAIR      84  34  16 CALM      30.11R
MONTROSE       FAIR      74  44  34 SW3       30.21R
EAGLE          FAIR      72  43  35 E5        30.30R
RIFLE          MOCLDY    75  46  35 E10       30.17R
DELTA          FAIR      80  37  20 CALM      30.16R
NUCLA          FAIR     N/A N/A N/A CALM      30.25R
$$

COZ017>023-064>068-310300-
...SOUTHWEST COLORADO...

CITY           SKY/WX    TMP DP  RH WIND       PRES   REMARKS
DURANGO        CLOUDY    69  43  38 NE8       30.29R
CORTEZ         FAIR      69  51  52 E3        30.22R
PAGOSA SPRINGS FAIR      63  41  44 NW7       30.38S
TELLURIDE      CLOUDY    60  45  56 SE8G18    30.49R
WOLF CREEK PAS FAIR      45  37  76 CALM      30.69S
$$

COZ009-010-012-014-032>034-037-058>063-310300-
...CENTRAL COLORADO...

CITY           SKY/WX    TMP DP  RH WIND       PRES   REMARKS
ASPEN          MOCLDY    62  43  49 SE14G23   30.38F
BUENA VISTA    MOCLDY    54  48  78 NW10      30.46S
COPPER MTN     FAIR      46  36  66 S8        30.69S
BERTHOUD PASS  MOCLDY    36  25  64 E21       30.72S
COTTONWOOD PAS DRIZZLE   52  45  76 W7        30.58S
GUNNISON       FAIR      64  41  42 N10       30.40R
KREMMLING      FAIR      61  41  48 CALM      30.38R
LEADVILLE      FAIR      46  41  82 SE6       30.56S
MONARCH PASS   MOCLDY    43  39  87 NE16      30.78R
SALIDA         FAIR      64  48  56 N12       30.49R
SUNLIGHT       FAIR      54  41  62 W6        30.61R
WILKERSON PASS FAIR      45  36  70 E6        30.68S
$$

COZ069>075-310300-
...SAN LUIS VALLEY/SANGRE DE CRISTO MOUNTAINS...

CITY           SKY/WX    TMP DP  RH WIND       PRES   REMARKS
ALAMOSA        FAIR      62  45  53 E10       30.36R
LA VETA PASS   FAIR      46  43  87 MISG      30.58R
SAGUACHE       FAIR      61  45  55 N7        30.40R
$$

COZ035-036-038>040-310300-
...NORTHERN COLORADO FRONT RANGE...

CITY           SKY/WX    TMP DP  RH WIND       PRES   REMARKS
DENVER INTL AP MOCLDY    68  53  58 E10       30.29R
DMNS CITY PARK   N/A     62  62 100 E8        30.30S
AURORA         MOCLDY    67  55  64 E9        30.31R
FRONT RANGE AP MOCLDY    70  55  60 E18       30.31R
ERIE MUNI ARPT FAIR      71  53  51 E9G20     30.28R
BOULDER MUN AP CLOUDY    70  50  49 NW5       30.29R
CENTENNIAL     TSTM      61  55  81 N9        30.33R
BROOMFIELD     MOCLDY    72  54  53 E15         N/A
FORT COLLINS   FAIR      70  52  52 E8        30.27R
LONGMONT       FAIR      72  51  48 NE5       30.30R
$$

COZ041-046-047-076>085-087-088-310300-
...PIKES PEAK/PALMER DIVIDE AND SOUTHERN FOOTHILLS...

CITY           SKY/WX    TMP DP  RH WIND       PRES   REMARKS
COLO. SPRINGS  FAIR      66  50  56 S8        30.35R
A. F. ACADEMY  CLOUDY    64  53  69 SW5       30.35R
SCHRIEVER AFB  NOT AVBL
ELLICOTT       NOT AVBL
FALCON         MOCLDY    60  52  75 CALM      30.39S
FORT CARSON    FAIR      65  54  67 S7        30.32R
LIMON          FAIR      61  51  70 E10       30.31R
MONUMENT HILL  MOCLDY    61  50  67 S9        30.40R
TRINIDAD       CLOUDY    67  53  61 N14       30.33R
$$

COZ042>045-048>051-090-091-310300-
...NORTHEAST COLORADO...

CITY           SKY/WX    TMP DP  RH WIND       PRES   REMARKS
GREELEY ARPT   FAIR      68  55  64 SE9       30.28R
AKRON          FAIR      64  60  87 SE6       30.27S
BURLINGTON     LGT RAIN  65  53  65 CALM      30.27R
WRAY           FAIR      66  64  94 CALM      30.24R
STERLING       FAIR      68  61  77 SE3       30.24R
HOLYOKE        FAIR      68  61  77 SE5       30.25R
FORT MORGAN    FAIR      64  55  70 E6        30.27S
$$

COZ086-089-092>099-310300-
...SOUTHEAST COLORADO...

CITY           SKY/WX    TMP DP  RH WIND       PRES   REMARKS
PUEBLO         FAIR      70  57  63 SW7       30.26R
LA JUNTA       FAIR      73  53  49 E10       30.23R
LAMAR          FAIR      72  56  57 S10       30.18S
SPRINGFIELD      N/A     65  61  87 S7        30.26R
$$




USA.gov is the U.S. government's official web portal to all federal, state and local government web resources and services.